カタログに戻る

COSMOS 2251 DEB

運用中LEO
NORAD 40810·DEBRIS·🇷🇺 Russia

打ち上げ Jun 16, 1993 から Plesetsk Cosmodrome

Loading…

次のパス (今後24時間)

TLE

最新Source: Space-Track

元期: Sep 13, 2026, 10:49 UTC

1 40810U 93036BWP 26256.45120587  .00001661  00000-0  34990-3 0  9999
2 40810  74.0323 270.8513 0018922 340.9439  19.1016 14.60193261656912

AllMySatでCOSMOS 2251 DEBをリアルタイム追跡

Download on the App Store